Regional Weather Roundup
Issued by NWS

Home | Current Version | Previous Version | Graphics & Text | Print | Product List | Glossary On
Versions: 1 2 3 4 5 6 7 8 9 10 11 12 13 14 15 16 17 18 19 20 21 22 23 24 25 26 27 28 29 30 31 32 33 34 35 36 37 38 39 40 41 42 43 44 45 46 47 48 49 50
000
ASUS43 KDTX 281101
RWRMI
MICHIGAN HOURLY REGIONAL WEATHER ROUNDUP
NATIONAL WEATHER SERVICE DETROIT/PONTIAC MI
600 AM EST WED JAN 28 2015

NOTE: "FAIR" INDICATES FEW OR NO CLOUDS BELOW 12,000 FEET WITH NO
SIGNIFICANT WEATHER AND/OR OBSTRUCTION TO VISIBILITY.

MIZ047>049-052>055-059>063-066>070-074>076-081>083-281200-
SOUTHEAST LOWER MICHIGAN

CITY           SKY/WX    TMP DP  RH WIND       PRES   REMARKS
ADRIAN         PTCLDY     8   3  80 CALM      30.33R
ALMA           MOCLDY     6   4  92 CALM      30.31R
ANN ARBOR      PTCLDY    10   7  87 W3        30.31R
BAD AXE        PTCLDY     4   2  88 CALM      30.30R
CARO           PTCLDY     3  -1  85 CALM      30.31R
DETROIT CITY   PTCLDY    14   8  77 NW3       30.31R
DETROIT        PTCLDY    11   8  88 W3        30.32R
FLINT          PTCLDY     6   1  80 CALM      30.31R
GROSSE ILE     CLEAR     12   9  85 W6        30.31R WCI   3
HILLSDALE      PTCLDY    10   7  89 CALM      30.28S
HOWELL         PTCLDY     7   4  90 W3        30.29R

CITY           SKY/WX    TMP DP  RH WIND       PRES   REMARKS
JACKSON        PTCLDY     8   4  83 CALM      30.29S
LAMBERTVILLE   PTCLDY    10   5  79 CALM      30.33R
LANSING        PTCLDY    10   5  80 E3        30.30S
LAPEER         FAIR       0  -3  85 CALM      30.30R
MASON          PTCLDY     9   6  87 CALM      30.29S
MONROE         CLEAR     10   9  92 CALM      30.31R
MT. CLEMENS    PTCLDY    12   8  83 W6        30.29R WCI   2
PONTIAC        PTCLDY     9   6  88 W3        30.28R
PORT HOPE        N/A     13   9  84 SW7       30.28R WCI   3
PORT HURON     PTCLDY     0  -2  92 CALM      30.30R
TRI CITIES     PTCLDY    11   6  81 W3        30.32R
TROY           CLEAR     16  10  77 NW7       30.32R WCI   7
SAGINAW HB     PTCLDY    10   9  92 CALM      30.32R
$$
MIZ043>046-050>051-056>058-064>065-071>073-077>080-281200-
SOUTHWEST LOWER MICHIGAN

CITY           SKY/WX    TMP DP  RH WIND       PRES   REMARKS
BATTLE CREEK   PTCLDY    11   6  81 CALM      30.29S
BENTON HARBOR  PTCLDY    11   9  92 E3        30.30S
BIG RAPIDS     PTCLDY     4   1  90 CALM      30.27R
COLDWATER      CLEAR      6   3  87 SE3       30.29S
FREMONT        FAIR       8   6  92 CALM      30.28S
HOLLAND        PTCLDY    15  10  80 SE3       30.30S
GRAND RAPIDS   MOCLDY    11   7  84 S6        30.30R WCI   1
IONIA          FAIR      10   7  87 CALM      30.29R
KALAMAZOO      CLEAR      8   4  83 CALM      30.30R
LUDINGTON      PTCLDY    11   7  83 CALM      30.28F
MARSHALL       CLEAR      6   2  86 CALM      30.29S
MOUNT PLEASANT PTCLDY     4   1  86 CALM      30.29S
MUSKEGON       PTCLDY    12   7  80 E3        30.30S
SOUTH HAVEN    PTCLDY    15  11  83 S3        30.30S
$$
MIZ016>042-281200-
NORTHERN LOWER MICHIGAN

CITY           SKY/WX    TMP DP  RH WIND       PRES   REMARKS
ALPENA         PTCLDY    -1  -6  79 CALM      30.30R
BEAVER ISLAND  CLOUDY    10   6  86 CALM      30.24F
BELLAIRE       PTCLDY     0  -4  85 CALM      30.28F
CADILLAC       PTCLDY    -3  -8  77 CALM      30.22F
CHARLEVOIX     PTCLDY     5   2  87 E5        30.28F WCI  -4
FRANKFORT      CLOUDY    10   8  89 CALM      30.27R
GAYLORD        MOCLDY    -5  -9  83 CALM      30.22S
GRAYLING       PTCLDY    -8 -13  80 CALM      30.25F
HARBOR SPRINGS MOCLDY     0  -4  81 CALM      30.26S
HOUGHTON LAKE  PTCLDY    -4  -9  79 CALM      30.26S
MANISTEE       PTCLDY     7   3  85 E6        30.28S WCI  -3
OSCODA         PTCLDY     5  -1  79 W3        30.29S
PELLSTON       MOCLDY    -8 -12  83 CALM      30.28R
ROGERS CITY    MOCLDY     7   0  74 SW6       30.29R WCI  -3
TRAVERSE CITY  PTCLDY     5   1  83 CALM      30.26F
$$
MIZ007>008-015-281200-
EASTERN UPPER MICHIGAN

CITY           SKY/WX    TMP DP  RH WIND       PRES   REMARKS
KINROSS        MOCLDY     1  -2  85 CALM      30.25S
MACKINAC ISLAN MOCLDY     8  -1  65 SW7       30.25F WCI  -3
NEWBERRY       CLOUDY     7   4  89 S3        30.22S
S. S. MARIE    MOCLDY    -1  -5  82 CALM      30.25R
MUNISING         N/A     22  15  75 SW3       30.22R
$$
MIZ004>006-011>014-085-281200-
CENTRAL UPPER MICHIGAN

CITY           SKY/WX    TMP DP  RH WIND       PRES   REMARKS
MANISTIQUE     CLOUDY    16  14  93 S3        30.22F
ESCANABA       CLOUDY    19  14  79 SW3       30.23S
MENOMINEE      CLOUDY    19  16  86 SW5       30.22F WCI  13
SAWYER-GWINN   CLOUDY    21  17  86 S8        30.16R WCI  11
$$
MIZ001>003-009>011-084-281200-
WESTERN UPPER MICHIGAN

CITY           SKY/WX    TMP DP  RH WIND       PRES   REMARKS
IRON MOUNTAIN  CLOUDY    21  16  81 SE3       30.16R
HOUGHTON       CLOUDY    23  18  81 S7        30.10F WCI  15
COPPER HARBOR    N/A     26  19  74 CALM      30.14F
IRONWOOD       CLOUDY    25  21  86 S6        30.06F WCI  18
$$

ABBREVIATIONS USED IN REMARKS
   TC - TEMPERATURE IN CELSIUS
  WCI - WIND CHILL INDEX
   HX - HEAT INDEX
  VSB - VISIBILITY




USA.gov is the U.S. government's official web portal to all federal, state and local government web resources and services.